Time,TemperatureF,DewpointF,PressureIn,WindDirection,WindDirectionDegrees,WindSpeedMPH,WindSpeedGustMPH,Humidity,HourlyPrecipIn,Conditions,Clouds,dailyrainin,SoftwareType,DateUTC
2013-05-08 00:01:00,57.7,53.2,30.05,North,0,0.0,0.0,85,0.00,,,0.00,WUHU21623XXSP,2013-05-08 05:01:00,
2013-05-08 00:06:00,57.7,53.2,30.05,North,0,0.0,0.0,85,0.00,,,0.00,WUHU21623XXSP,2013-05-08 05:06:00,
2013-05-08 00:11:00,57.6,53.1,30.05,North,0,0.0,0.0,85,0.00,,,0.00,WUHU21623XXSP,2013-05-08 05:11:00,
2013-05-08 00:16:00,57.4,52.9,30.05,North,0,0.0,0.0,85,0.00,,,0.00,WUHU21623XXSP,2013-05-08 05:16:00,
2013-05-08 00:21:00,57.4,52.9,30.05,North,0,0.0,0.0,85,0.00,,,0.00,WUHU21623XXSP,2013-05-08 05:21:00,
2013-05-08 00:26:00,57.4,53.2,30.05,North,0,0.0,0.0,86,0.00,,,0.00,WUHU21623XXSP,2013-05-08 05:26:00,
2013-05-08 00:31:00,57.2,53.2,30.05,North,0,0.0,0.0,86,0.00,,,0.00,WUHU21623XXSP,2013-05-08 05:31:00,
2013-05-08 00:36:00,57.0,52.8,30.04,North,0,0.0,0.0,86,0.00,,,0.00,WUHU21623XXSP,2013-05-08 05:36:00,
2013-05-08 00:41:00,57.0,52.8,30.04,North,0,0.0,0.0,86,0.00,,,0.00,WUHU21623XXSP,2013-05-08 05:41:00,
2013-05-08 00:46:00,57.0,52.8,30.04,North,0,0.0,0.0,86,0.00,,,0.00,WUHU21623XXSP,2013-05-08 05:46:00,
2013-05-08 00:51:00,56.8,52.8,30.04,North,0,0.0,0.0,86,0.00,,,0.00,WUHU21623XXSP,2013-05-08 05:51:00,
2013-05-08 00:56:00,56.8,52.7,30.05,North,0,0.0,0.0,86,0.00,,,0.00,WUHU21623XXSP,2013-05-08 05:56:00,
2013-05-08 01:01:00,56.8,52.7,30.04,North,0,0.0,0.0,86,0.00,,,0.00,WUHU21623XXSP,2013-05-08 06:01:00,
2013-05-08 01:06:00,56.8,52.7,30.04,North,0,0.0,0.0,86,0.00,,,0.00,WUHU21623XXSP,2013-05-08 06:06:00,
2013-05-08 01:11:00,56.5,52.5,30.04,North,0,0.0,0.0,86,0.00,,,0.00,WUHU21623XXSP,2013-05-08 06:11:00,
2013-05-08 01:16:00,56.5,52.3,30.03,North,0,0.0,0.0,86,0.00,,,0.00,WUHU21623XXSP,2013-05-08 06:16:00,
2013-05-08 01:21:00,56.5,52.3,30.03,North,0,0.0,0.0,86,0.00,,,0.00,WUHU21623XXSP,2013-05-08 06:21:00,
2013-05-08 01:26:00,56.3,52.4,30.03,North,0,0.0,0.0,87,0.00,,,0.00,WUHU21623XXSP,2013-05-08 06:26:00,
2013-05-08 01:31:00,56.1,52.3,30.03,North,0,0.0,0.0,87,0.00,,,0.00,WUHU21623XXSP,2013-05-08 06:31:00,
2013-05-08 01:36:00,56.1,52.3,30.03,North,0,0.0,0.0,87,0.00,,,0.00,WUHU21623XXSP,2013-05-08 06:36:00,
2013-05-08 01:41:00,56.1,52.3,30.03,North,0,0.0,0.0,87,0.00,,,0.00,WUHU21623XXSP,2013-05-08 06:41:00,
2013-05-08 01:46:00,55.9,52.1,30.03,North,0,0.0,0.0,87,0.00,,,0.00,WUHU21623XXSP,2013-05-08 06:46:00,
2013-05-08 01:51:00,55.9,52.1,30.03,North,0,0.0,0.0,87,0.00,,,0.00,WUHU21623XXSP,2013-05-08 06:51:00,
2013-05-08 01:56:00,55.9,52.1,30.03,North,0,0.0,0.0,87,0.00,,,0.00,WUHU21623XXSP,2013-05-08 06:56:00,
2013-05-08 02:01:00,55.8,51.9,30.03,North,0,0.0,0.0,87,0.00,,,0.00,WUHU21623XXSP,2013-05-08 07:01:00,
2013-05-08 02:06:00,55.8,51.9,30.03,North,0,0.0,0.0,87,0.00,,,0.00,WUHU21623XXSP,2013-05-08 07:06:00,
2013-05-08 02:11:00,55.8,51.9,30.03,North,0,0.0,0.0,87,0.00,,,0.00,WUHU21623XXSP,2013-05-08 07:11:00,
2013-05-08 02:16:00,55.8,51.9,30.03,North,0,0.0,0.0,87,0.00,,,0.00,WUHU21623XXSP,2013-05-08 07:16:00,
2013-05-08 02:21:00,55.8,52.2,30.02,North,0,0.0,0.0,88,0.00,,,0.00,WUHU21623XXSP,2013-05-08 07:21:00,
2013-05-08 02:26:00,55.8,52.4,30.02,North,0,0.0,0.0,88,0.00,,,0.00,WUHU21623XXSP,2013-05-08 07:26:00,
2013-05-08 02:31:00,55.9,52.4,30.02,North,0,0.0,0.0,88,0.00,,,0.00,WUHU21623XXSP,2013-05-08 07:31:00,
2013-05-08 02:36:00,55.9,52.4,30.02,North,0,0.0,0.0,88,0.00,,,0.00,WUHU21623XXSP,2013-05-08 07:36:00,
2013-05-08 02:41:00,55.9,52.4,30.02,North,0,0.0,0.0,88,0.00,,,0.00,WUHU21623XXSP,2013-05-08 07:41:00,
2013-05-08 02:46:00,56.1,52.6,30.02,North,0,0.0,0.0,88,0.00,,,0.00,WUHU21623XXSP,2013-05-08 07:46:00,
2013-05-08 02:51:00,56.1,52.6,30.02,North,0,0.0,0.0,88,0.00,,,0.00,WUHU21623XXSP,2013-05-08 07:51:00,
2013-05-08 02:56:00,56.1,52.6,30.02,North,0,0.0,0.0,88,0.00,,,0.00,WUHU21623XXSP,2013-05-08 07:56:00,
2013-05-08 03:01:00,56.3,52.8,30.02,North,0,0.0,0.0,88,0.00,,,0.00,WUHU21623XXSP,2013-05-08 08:01:00,
2013-05-08 03:06:00,56.3,52.8,30.02,North,0,0.0,0.0,88,0.00,,,0.00,WUHU21623XXSP,2013-05-08 08:06:00,
2013-05-08 03:11:00,56.5,53.0,30.02,North,0,0.0,0.0,88,0.00,,,0.00,WUHU21623XXSP,2013-05-08 08:11:00,
2013-05-08 03:16:00,56.5,53.0,30.02,North,0,0.0,0.0,88,0.00,,,0.00,WUHU21623XXSP,2013-05-08 08:16:00,
2013-05-08 03:21:00,56.5,53.3,30.02,North,0,0.0,0.0,89,0.00,,,0.00,WUHU21623XXSP,2013-05-08 08:21:00,
2013-05-08 03:26:00,56.5,53.3,30.02,North,0,0.0,0.0,89,0.00,,,0.00,WUHU21623XXSP,2013-05-08 08:26:00,
2013-05-08 03:31:00,56.7,53.5,30.02,North,0,0.0,0.0,89,0.00,,,0.00,WUHU21623XXSP,2013-05-08 08:31:00,
2013-05-08 03:36:00,56.8,53.6,30.03,North,0,0.0,0.0,89,0.00,,,0.00,WUHU21623XXSP,2013-05-08 08:36:00,
2013-05-08 03:41:00,56.8,53.6,30.02,North,0,0.0,0.0,89,0.00,,,0.00,WUHU21623XXSP,2013-05-08 08:41:00,
2013-05-08 03:46:00,56.8,53.6,30.02,North,0,0.0,0.0,89,0.00,,,0.00,WUHU21623XXSP,2013-05-08 08:46:00,
2013-05-08 03:51:00,56.8,53.6,30.02,North,0,0.0,0.0,89,0.00,,,0.00,WUHU21623XXSP,2013-05-08 08:51:00,
2013-05-08 03:56:00,56.8,53.6,30.02,North,0,0.0,0.0,89,0.00,,,0.00,WUHU21623XXSP,2013-05-08 08:56:00,
2013-05-08 04:01:00,56.8,53.6,30.02,North,0,0.0,0.0,89,0.00,,,0.00,WUHU21623XXSP,2013-05-08 09:01:00,
2013-05-08 04:06:00,56.8,53.6,30.02,North,0,0.0,0.0,89,0.00,,,0.00,WUHU21623XXSP,2013-05-08 09:06:00,
2013-05-08 04:11:00,56.8,53.6,30.03,North,0,0.0,0.0,89,0.00,,,0.00,WUHU21623XXSP,2013-05-08 09:11:00,
2013-05-08 04:16:00,56.8,53.6,30.02,North,0,0.0,0.0,89,0.00,,,0.00,WUHU21623XXSP,2013-05-08 09:16:00,
2013-05-08 04:21:00,56.7,53.5,30.03,North,0,0.0,0.0,89,0.00,,,0.00,WUHU21623XXSP,2013-05-08 09:21:00,
2013-05-08 04:26:00,56.8,53.6,30.02,North,0,0.0,0.0,89,0.00,,,0.00,WUHU21623XXSP,2013-05-08 09:26:00,
2013-05-08 04:31:00,56.5,53.3,30.03,North,0,0.0,0.0,89,0.00,,,0.00,WUHU21623XXSP,2013-05-08 09:31:00,
2013-05-08 04:36:00,56.5,53.3,30.03,North,0,0.0,0.0,89,0.00,,,0.00,WUHU21623XXSP,2013-05-08 09:36:00,
2013-05-08 04:41:00,56.5,53.6,30.03,North,0,0.0,0.0,90,0.00,,,0.00,WUHU21623XXSP,2013-05-08 09:41:00,
2013-05-08 04:46:00,56.5,53.6,30.03,North,0,0.0,0.0,90,0.00,,,0.00,WUHU21623XXSP,2013-05-08 09:46:00,
2013-05-08 04:51:00,56.5,53.6,30.03,North,0,0.0,0.0,90,0.00,,,0.00,WUHU21623XXSP,2013-05-08 09:51:00,
2013-05-08 04:56:00,56.3,53.1,30.03,North,0,0.0,0.0,89,0.00,,,0.00,WUHU21623XXSP,2013-05-08 09:56:00,
2013-05-08 05:01:00,56.1,52.9,30.03,North,0,0.0,0.0,89,0.00,,,0.00,WUHU21623XXSP,2013-05-08 10:01:00,
2013-05-08 05:06:00,56.1,52.9,30.03,North,0,0.0,0.0,89,0.00,,,0.00,WUHU21623XXSP,2013-05-08 10:06:00,
2013-05-08 05:11:00,55.9,52.7,30.03,North,0,0.0,0.0,89,0.00,,,0.00,WUHU21623XXSP,2013-05-08 10:11:00,
2013-05-08 05:16:00,55.9,52.7,30.03,North,0,0.0,0.0,89,0.00,,,0.00,WUHU21623XXSP,2013-05-08 10:16:00,
2013-05-08 05:21:00,55.9,52.7,30.03,North,0,0.0,0.0,89,0.00,,,0.00,WUHU21623XXSP,2013-05-08 10:21:00,
2013-05-08 05:26:00,55.8,52.9,30.04,North,0,0.0,0.0,90,0.00,,,0.00,WUHU21623XXSP,2013-05-08 10:26:00,
2013-05-08 05:31:00,55.6,52.7,30.03,North,0,0.0,0.0,90,0.00,,,0.00,WUHU21623XXSP,2013-05-08 10:31:00,
2013-05-08 05:36:00,55.6,52.7,30.04,North,0,0.0,0.0,90,0.00,,,0.00,WUHU21623XXSP,2013-05-08 10:36:00,
2013-05-08 05:41:00,55.4,52.5,30.04,North,0,0.0,0.0,90,0.00,,,0.00,WUHU21623XXSP,2013-05-08 10:41:00,
2013-05-08 05:46:00,55.2,52.3,30.04,North,0,0.0,0.0,90,0.00,,,0.00,WUHU21623XXSP,2013-05-08 10:46:00,
2013-05-08 05:51:00,55.2,52.3,30.04,North,0,0.0,0.0,90,0.00,,,0.00,WUHU21623XXSP,2013-05-08 10:51:00,
2013-05-08 05:56:00,55.2,52.3,30.05,North,0,0.0,0.0,90,0.00,,,0.00,WUHU21623XXSP,2013-05-08 10:56:00,
2013-05-08 06:01:00,55.0,52.3,30.05,North,0,0.0,0.0,90,0.00,,,0.00,WUHU21623XXSP,2013-05-08 11:01:00,
2013-05-08 06:06:00,55.0,52.2,30.05,North,0,0.0,0.0,90,0.00,,,0.00,WUHU21623XXSP,2013-05-08 11:06:00,
2013-05-08 06:11:00,55.0,52.2,30.06,North,0,0.0,0.0,90,0.00,,,0.00,WUHU21623XXSP,2013-05-08 11:11:00,
2013-05-08 06:16:00,55.0,52.2,30.06,North,0,0.0,0.0,90,0.00,,,0.00,WUHU21623XXSP,2013-05-08 11:16:00,
2013-05-08 06:21:00,55.0,52.2,30.07,North,0,0.0,0.0,90,0.00,,,0.00,WUHU21623XXSP,2013-05-08 11:21:00,
2013-05-08 06:26:00,54.9,52.0,30.07,North,0,0.0,0.0,90,0.00,,,0.00,WUHU21623XXSP,2013-05-08 11:26:00,
2013-05-08 06:31:00,55.0,52.2,30.07,North,0,0.0,0.0,90,0.00,,,0.00,WUHU21623XXSP,2013-05-08 11:31:00,
2013-05-08 06:36:00,54.9,52.0,30.07,North,0,0.0,0.0,90,0.00,,,0.00,WUHU21623XXSP,2013-05-08 11:36:00,
2013-05-08 06:41:00,55.0,52.2,30.08,North,0,0.0,0.0,90,0.00,,,0.00,WUHU21623XXSP,2013-05-08 11:41:00,
2013-05-08 06:46:00,54.9,52.2,30.08,North,0,0.0,0.0,90,0.00,,,0.00,WUHU21623XXSP,2013-05-08 11:46:00,
2013-05-08 06:51:00,55.0,52.2,30.08,North,0,0.0,0.0,90,0.00,,,0.00,WUHU21623XXSP,2013-05-08 11:51:00,
2013-05-08 06:56:00,55.2,52.3,30.08,North,0,0.0,0.0,90,0.00,,,0.00,WUHU21623XXSP,2013-05-08 11:56:00,
2013-05-08 07:01:00,55.2,52.3,30.08,North,0,0.0,0.0,90,0.00,,,0.00,WUHU21623XXSP,2013-05-08 12:01:00,
2013-05-08 07:06:00,55.2,52.3,30.08,North,0,0.0,0.0,90,0.00,,,0.00,WUHU21623XXSP,2013-05-08 12:06:00,
2013-05-08 07:11:00,55.6,52.5,30.08,North,0,0.0,0.0,90,0.00,,,0.00,WUHU21623XXSP,2013-05-08 12:11:00,
2013-05-08 07:16:00,55.6,53.0,30.08,North,0,0.0,0.0,91,0.00,,,0.00,WUHU21623XXSP,2013-05-08 12:16:00,
2013-05-08 07:21:00,55.9,53.3,30.09,North,0,0.0,0.0,91,0.00,,,0.00,WUHU21623XXSP,2013-05-08 12:21:00,
2013-05-08 07:26:00,56.3,53.7,30.09,North,0,0.0,0.0,91,0.00,,,0.00,WUHU21623XXSP,2013-05-08 12:26:00,
2013-05-08 07:31:00,56.5,53.9,30.09,North,0,0.0,0.0,91,0.00,,,0.00,WUHU21623XXSP,2013-05-08 12:31:00,
2013-05-08 07:36:00,57.0,54.4,30.08,North,0,0.0,0.0,91,0.00,,,0.00,WUHU21623XXSP,2013-05-08 12:36:00,
2013-05-08 07:41:00,57.6,55.3,30.08,North,0,0.0,0.0,92,0.00,,,0.00,WUHU21623XXSP,2013-05-08 12:41:00,
2013-05-08 07:46:00,57.9,55.6,30.09,North,0,0.0,0.0,92,0.00,,,0.00,WUHU21623XXSP,2013-05-08 12:46:00,
2013-05-08 07:51:00,58.8,56.5,30.09,North,0,0.0,0.0,92,0.00,,,0.00,WUHU21623XXSP,2013-05-08 12:51:00,
2013-05-08 07:56:00,59.4,57.1,30.09,North,0,0.0,0.0,92,0.00,,,0.00,WUHU21623XXSP,2013-05-08 12:56:00,
2013-05-08 08:01:00,59.7,57.2,30.09,North,0,0.0,0.0,93,0.00,,,0.00,WUHU21623XXSP,2013-05-08 13:01:00,
2013-05-08 08:05:00,60.6,58.6,30.09,North,0,0.0,0.0,93,0.00,,,0.00,WUHU21623XXSP,2013-05-08 13:05:00,
2013-05-08 08:10:00,61.0,58.7,30.09,North,0,0.0,0.0,92,0.00,,,0.00,WUHU21623XXSP,2013-05-08 13:10:00,
2013-05-08 08:15:00,61.3,59.3,30.10,North,0,0.0,0.0,93,0.00,,,0.00,WUHU21623XXSP,2013-05-08 13:15:00,
2013-05-08 08:20:00,61.9,59.9,30.10,North,0,0.0,0.0,93,0.00,,,0.00,WUHU21623XXSP,2013-05-08 13:20:00,
2013-05-08 08:25:00,62.4,60.2,30.10,North,0,0.0,0.0,93,0.00,,,0.00,WUHU21623XXSP,2013-05-08 13:25:00,
2013-05-08 08:30:00,62.8,60.8,30.10,North,0,0.0,0.0,93,0.00,,,0.00,WUHU21623XXSP,2013-05-08 13:30:00,
2013-05-08 08:35:00,63.5,61.5,30.10,North,0,0.0,0.0,93,0.00,,,0.00,WUHU21623XXSP,2013-05-08 13:35:00,
2013-05-08 08:40:00,64.0,61.7,30.10,North,0,0.0,0.0,92,0.00,,,0.00,WUHU21623XXSP,2013-05-08 13:40:00,
2013-05-08 08:45:00,64.4,62.1,30.09,North,0,0.0,0.0,92,0.00,,,0.00,WUHU21623XXSP,2013-05-08 13:45:00,
2013-05-08 08:50:00,65.1,62.5,30.10,North,0,0.0,0.0,91,0.00,,,0.00,WUHU21623XXSP,2013-05-08 13:50:00,
2013-05-08 08:55:00,65.5,62.5,30.09,North,0,0.0,0.0,90,0.00,,,0.00,WUHU21623XXSP,2013-05-08 13:55:00,
2013-05-08 09:00:00,65.8,62.5,30.09,North,0,0.0,0.0,89,0.00,,,0.00,WUHU21623XXSP,2013-05-08 14:00:00,
2013-05-08 09:05:00,66.4,62.3,30.09,North,0,0.0,0.0,87,0.00,,,0.00,WUHU21623XXSP,2013-05-08 14:05:00,
2013-05-08 09:10:00,66.9,62.6,30.10,North,0,0.0,0.0,86,0.00,,,0.00,WUHU21623XXSP,2013-05-08 14:10:00,
2013-05-08 09:15:00,67.6,63.0,30.10,North,0,0.0,0.0,85,0.00,,,0.00,WUHU21623XXSP,2013-05-08 14:15:00,
2013-05-08 09:20:00,68.4,63.3,30.10,North,0,0.0,0.0,84,0.00,,,0.00,WUHU21623XXSP,2013-05-08 14:20:00,
2013-05-08 09:25:00,68.7,63.3,30.10,North,0,0.0,0.0,83,0.00,,,0.00,WUHU21623XXSP,2013-05-08 14:25:00,
2013-05-08 09:30:00,69.1,63.3,30.10,North,0,0.0,0.0,82,0.00,,,0.00,WUHU21623XXSP,2013-05-08 14:30:00,
2013-05-08 09:35:00,69.8,63.7,30.10,North,0,0.0,0.0,81,0.00,,,0.00,WUHU21623XXSP,2013-05-08 14:35:00,
2013-05-08 09:40:00,70.2,63.7,30.10,North,0,0.0,0.0,80,0.00,,,0.00,WUHU21623XXSP,2013-05-08 14:40:00,
2013-05-08 09:45:00,70.5,63.3,30.10,North,0,0.0,0.0,78,0.00,,,0.00,WUHU21623XXSP,2013-05-08 14:45:00,
2013-05-08 09:50:00,70.9,63.3,30.10,North,0,0.0,0.0,77,0.00,,,0.00,WUHU21623XXSP,2013-05-08 14:50:00,
2013-05-08 09:55:00,71.2,63.2,30.10,North,0,0.0,0.0,76,0.00,,,0.00,WUHU21623XXSP,2013-05-08 14:55:00,
2013-05-08 10:00:00,71.4,63.4,30.11,North,0,0.0,0.0,76,0.00,,,0.00,WUHU21623XXSP,2013-05-08 15:00:00,
2013-05-08 10:05:00,71.8,63.0,30.11,North,0,0.0,0.0,74,0.00,,,0.00,WUHU21623XXSP,2013-05-08 15:05:00,
2013-05-08 10:10:00,72.1,63.0,30.11,North,0,0.0,0.0,73,0.00,,,0.00,WUHU21623XXSP,2013-05-08 15:10:00,
2013-05-08 10:15:00,72.3,62.4,30.11,North,0,0.0,0.0,71,0.00,,,0.00,WUHU21623XXSP,2013-05-08 15:15:00,
2013-05-08 10:20:00,73.0,62.8,30.11,North,0,0.0,0.0,70,0.00,,,0.00,WUHU21623XXSP,2013-05-08 15:20:00,
2013-05-08 10:25:00,73.2,63.0,30.12,North,0,0.0,0.0,69,0.00,,,0.00,WUHU21623XXSP,2013-05-08 15:25:00,
2013-05-08 10:30:00,73.4,62.2,30.12,North,0,0.0,0.0,68,0.00,,,0.00,WUHU21623XXSP,2013-05-08 15:30:00,
2013-05-08 10:35:00,73.8,63.0,30.12,North,0,0.0,0.0,69,0.00,,,0.00,WUHU21623XXSP,2013-05-08 15:35:00,
2013-05-08 10:40:00,73.9,63.2,30.12,North,0,0.0,0.0,69,0.00,,,0.00,WUHU21623XXSP,2013-05-08 15:40:00,
2013-05-08 10:45:00,74.1,62.9,30.12,North,0,0.0,0.0,68,0.00,,,0.00,WUHU21623XXSP,2013-05-08 15:45:00,
2013-05-08 10:50:00,74.7,63.4,30.12,North,0,0.0,0.0,68,0.00,,,0.00,WUHU21623XXSP,2013-05-08 15:50:00,
2013-05-08 10:55:00,74.8,62.7,30.12,North,0,0.0,0.0,66,0.00,,,0.00,WUHU21623XXSP,2013-05-08 15:55:00,
2013-05-08 11:00:00,75.0,62.4,30.12,North,0,0.0,0.0,65,0.00,,,0.00,WUHU21623XXSP,2013-05-08 16:00:00,
2013-05-08 11:05:00,75.7,63.1,30.12,North,0,0.0,0.0,65,0.00,,,0.00,WUHU21623XXSP,2013-05-08 16:05:00,
2013-05-08 11:10:00,75.9,61.5,30.12,North,0,0.0,0.0,61,0.00,,,0.00,WUHU21623XXSP,2013-05-08 16:10:00,
2013-05-08 11:15:00,76.3,62.3,30.12,North,0,0.0,0.0,62,0.00,,,0.00,WUHU21623XXSP,2013-05-08 16:15:00,
2013-05-08 11:20:00,76.6,62.6,30.12,North,0,0.0,0.0,62,0.00,,,0.00,WUHU21623XXSP,2013-05-08 16:20:00,
2013-05-08 11:25:00,76.6,62.6,30.12,North,0,0.0,0.0,62,0.00,,,0.00,WUHU21623XXSP,2013-05-08 16:25:00,
2013-05-08 11:30:00,76.8,62.3,30.12,North,0,0.0,0.0,61,0.00,,,0.00,WUHU21623XXSP,2013-05-08 16:30:00,
2013-05-08 11:35:00,77.4,62.4,30.12,North,0,0.0,0.0,60,0.00,,,0.00,WUHU21623XXSP,2013-05-08 16:35:00,
2013-05-08 11:40:00,77.5,61.6,30.12,North,0,0.0,0.0,58,0.00,,,0.00,WUHU21623XXSP,2013-05-08 16:40:00,
2013-05-08 11:45:00,77.7,61.2,30.12,North,0,0.0,0.0,57,0.00,,,0.00,WUHU21623XXSP,2013-05-08 16:45:00,
2013-05-08 11:50:00,77.7,61.8,30.11,North,0,0.0,0.0,58,0.00,,,0.00,WUHU21623XXSP,2013-05-08 16:50:00,
2013-05-08 11:55:00,78.1,61.6,30.11,North,0,0.0,0.0,57,0.00,,,0.00,WUHU21623XXSP,2013-05-08 16:55:00,
2013-05-08 12:00:00,78.6,61.4,30.11,North,0,0.0,0.0,56,0.00,,,0.00,WUHU21623XXSP,2013-05-08 17:00:00,
2013-05-08 12:05:00,79.5,61.4,30.11,North,0,0.0,0.0,54,0.00,,,0.00,WUHU21623XXSP,2013-05-08 17:05:00,
2013-05-08 12:10:00,80.2,62.5,30.11,North,0,0.0,0.0,55,0.00,,,0.00,WUHU21623XXSP,2013-05-08 17:10:00,
2013-05-08 12:15:00,80.6,61.3,30.11,North,0,0.0,0.0,52,0.00,,,0.00,WUHU21623XXSP,2013-05-08 17:15:00,
2013-05-08 12:20:00,80.8,60.9,30.11,North,0,0.0,0.0,51,0.00,,,0.00,WUHU21623XXSP,2013-05-08 17:20:00,
2013-05-08 12:25:00,80.8,60.9,30.10,North,0,0.0,0.0,51,0.00,,,0.00,WUHU21623XXSP,2013-05-08 17:25:00,
2013-05-08 12:30:00,80.8,61.5,30.10,North,0,0.0,0.0,52,0.00,,,0.00,WUHU21623XXSP,2013-05-08 17:30:00,
2013-05-08 12:35:00,81.1,61.8,30.10,North,0,0.0,0.0,52,0.00,,,0.00,WUHU21623XXSP,2013-05-08 17:35:00,
2013-05-08 12:40:00,82.0,62.1,30.10,North,0,0.0,0.0,51,0.00,,,0.00,WUHU21623XXSP,2013-05-08 17:40:00,
2013-05-08 12:45:00,82.9,64.0,30.10,North,0,0.0,0.0,53,0.00,,,0.00,WUHU21623XXSP,2013-05-08 17:45:00,
2013-05-08 12:50:00,84.0,64.5,30.10,North,0,0.0,0.0,52,0.00,,,0.00,WUHU21623XXSP,2013-05-08 17:50:00,
2013-05-08 12:55:00,84.9,63.7,30.10,North,0,0.0,0.0,49,0.00,,,0.00,WUHU21623XXSP,2013-05-08 17:55:00,
2013-05-08 13:00:00,85.3,63.4,30.10,North,0,0.0,0.0,48,0.00,,,0.00,WUHU21623XXSP,2013-05-08 18:00:00,
2013-05-08 13:05:00,84.7,62.9,30.10,North,0,0.0,0.0,48,0.00,,,0.00,WUHU21623XXSP,2013-05-08 18:05:00,
2013-05-08 13:10:00,84.4,62.9,30.10,North,0,0.0,0.0,48,0.00,,,0.00,WUHU21623XXSP,2013-05-08 18:10:00,
2013-05-08 13:15:00,83.5,64.0,30.10,North,0,0.0,0.0,51,0.00,,,0.00,WUHU21623XXSP,2013-05-08 18:15:00,
2013-05-08 13:20:00,83.1,63.6,30.10,North,0,0.0,0.0,52,0.00,,,0.00,WUHU21623XXSP,2013-05-08 18:20:00,
2013-05-08 13:25:00,82.9,64.5,30.10,North,0,0.0,0.0,54,0.00,,,0.00,WUHU21623XXSP,2013-05-08 18:25:00,
2013-05-08 13:30:00,82.8,64.3,30.10,North,0,0.0,0.0,54,0.00,,,0.00,WUHU21623XXSP,2013-05-08 18:30:00,
2013-05-08 13:35:00,82.0,64.2,30.10,North,0,0.0,0.0,55,0.00,,,0.00,WUHU21623XXSP,2013-05-08 18:35:00,
2013-05-08 13:40:00,81.3,64.0,30.10,North,0,0.0,0.0,56,0.00,,,0.00,WUHU21623XXSP,2013-05-08 18:40:00,
2013-05-08 13:45:00,81.1,64.4,30.10,North,0,0.0,0.0,57,0.00,,,0.00,WUHU21623XXSP,2013-05-08 18:45:00,
2013-05-08 13:50:00,81.0,64.4,30.10,North,0,0.0,0.0,57,0.00,,,0.00,WUHU21623XXSP,2013-05-08 18:50:00,
2013-05-08 13:55:00,80.8,64.1,30.10,North,0,0.0,0.0,57,0.00,,,0.00,WUHU21623XXSP,2013-05-08 18:55:00,
2013-05-08 14:00:00,81.1,65.4,30.10,North,0,0.0,0.0,59,0.00,,,0.00,WUHU21623XXSP,2013-05-08 19:00:00,
2013-05-08 14:05:00,81.3,65.1,30.10,North,0,0.0,0.0,58,0.00,,,0.00,WUHU21623XXSP,2013-05-08 19:05:00,
2013-05-08 14:10:00,81.7,65.2,30.09,North,0,0.0,0.0,57,0.00,,,0.00,WUHU21623XXSP,2013-05-08 19:10:00,
2013-05-08 14:15:00,81.5,64.2,30.09,North,0,0.0,0.0,56,0.00,,,0.00,WUHU21623XXSP,2013-05-08 19:15:00,
2013-05-08 14:20:00,81.1,64.4,30.09,North,0,0.0,0.0,57,0.00,,,0.00,WUHU21623XXSP,2013-05-08 19:20:00,
2013-05-08 14:25:00,81.0,64.8,30.09,North,0,0.0,0.0,58,0.00,,,0.00,WUHU21623XXSP,2013-05-08 19:25:00,
2013-05-08 14:30:00,81.0,64.8,30.09,North,0,0.0,0.0,58,0.00,,,0.00,WUHU21623XXSP,2013-05-08 19:30:00,
2013-05-08 14:35:00,81.3,64.6,30.08,North,0,0.0,0.0,57,0.00,,,0.00,WUHU21623XXSP,2013-05-08 19:35:00,
2013-05-08 14:40:00,81.9,65.0,30.08,North,0,0.0,0.0,57,0.00,,,0.00,WUHU21623XXSP,2013-05-08 19:40:00,
2013-05-08 14:45:00,82.0,65.2,30.08,North,0,0.0,0.0,57,0.00,,,0.00,WUHU21623XXSP,2013-05-08 19:45:00,
2013-05-08 14:50:00,81.7,64.4,30.08,North,0,0.0,0.0,56,0.00,,,0.00,WUHU21623XXSP,2013-05-08 19:50:00,
2013-05-08 14:55:00,81.3,64.0,30.08,North,0,0.0,0.0,56,0.00,,,0.00,WUHU21623XXSP,2013-05-08 19:55:00,
2013-05-08 15:00:00,81.0,63.9,30.08,North,0,0.0,0.0,57,0.00,,,0.00,WUHU21623XXSP,2013-05-08 20:00:00,
2013-05-08 15:05:00,80.4,64.3,30.08,North,0,0.0,0.0,58,0.00,,,0.00,WUHU21623XXSP,2013-05-08 20:05:00,
2013-05-08 15:10:00,80.4,64.3,30.07,North,0,0.0,0.0,58,0.00,,,0.00,WUHU21623XXSP,2013-05-08 20:10:00,
2013-05-08 15:15:00,80.8,64.8,30.07,North,0,0.0,0.0,58,0.00,,,0.00,WUHU21623XXSP,2013-05-08 20:15:00,
2013-05-08 15:20:00,81.1,63.9,30.07,North,0,0.0,0.0,56,0.00,,,0.00,WUHU21623XXSP,2013-05-08 20:20:00,
2013-05-08 15:25:00,80.8,64.2,30.06,North,0,0.0,0.0,58,0.00,,,0.00,WUHU21623XXSP,2013-05-08 20:25:00,
2013-05-08 15:30:00,80.2,65.2,30.06,North,0,0.0,0.0,60,0.00,,,0.00,WUHU21623XXSP,2013-05-08 20:30:00,
2013-05-08 15:35:00,79.7,65.1,30.06,North,0,0.0,0.0,61,0.00,,,0.00,WUHU21623XXSP,2013-05-08 20:35:00,
2013-05-08 15:40:00,79.5,65.4,30.06,North,0,0.0,0.0,62,0.00,,,0.00,WUHU21623XXSP,2013-05-08 20:40:00,
2013-05-08 15:45:00,79.7,65.6,30.06,North,0,0.0,0.0,62,0.00,,,0.00,WUHU21623XXSP,2013-05-08 20:45:00,
2013-05-08 15:50:00,80.2,65.7,30.06,North,0,0.0,0.0,62,0.00,,,0.00,WUHU21623XXSP,2013-05-08 20:50:00,
2013-05-08 15:55:00,80.4,65.8,30.06,North,0,0.0,0.0,61,0.00,,,0.00,WUHU21623XXSP,2013-05-08 20:55:00,
2013-05-08 16:00:00,80.8,66.1,30.05,North,0,0.0,0.0,61,0.00,,,0.00,WUHU21623XXSP,2013-05-08 21:00:00,
2013-05-08 16:05:00,81.3,66.6,30.05,North,0,0.0,0.0,61,0.00,,,0.00,WUHU21623XXSP,2013-05-08 21:05:00,
2013-05-08 16:10:00,82.0,66.3,30.05,North,0,0.0,0.0,59,0.00,,,0.00,WUHU21623XXSP,2013-05-08 21:10:00,
2013-05-08 16:15:00,82.9,65.7,30.05,North,0,0.0,0.0,57,0.00,,,0.00,WUHU21623XXSP,2013-05-08 21:15:00,
2013-05-08 16:20:00,83.1,65.7,30.06,North,0,0.0,0.0,56,0.00,,,0.00,WUHU21623XXSP,2013-05-08 21:20:00,
2013-05-08 16:25:00,83.3,65.4,30.06,North,0,0.0,0.0,55,0.00,,,0.00,WUHU21623XXSP,2013-05-08 21:25:00,
2013-05-08 16:30:00,83.3,65.4,30.05,North,0,0.0,0.0,55,0.00,,,0.00,WUHU21623XXSP,2013-05-08 21:30:00,
2013-05-08 16:35:00,83.5,65.6,30.06,North,0,0.0,0.0,55,0.00,,,0.00,WUHU21623XXSP,2013-05-08 21:35:00,
2013-05-08 16:40:00,83.8,65.9,30.06,North,0,0.0,0.0,55,0.00,,,0.00,WUHU21623XXSP,2013-05-08 21:40:00,
2013-05-08 16:45:00,84.0,66.1,30.06,North,0,0.0,0.0,55,0.00,,,0.00,WUHU21623XXSP,2013-05-08 21:45:00,
2013-05-08 16:50:00,84.0,66.1,30.06,North,0,0.0,0.0,55,0.00,,,0.00,WUHU21623XXSP,2013-05-08 21:50:00,
2013-05-08 16:55:00,83.8,65.9,30.06,North,0,0.0,0.0,55,0.00,,,0.00,WUHU21623XXSP,2013-05-08 21:55:00,
2013-05-08 17:00:00,83.1,65.7,30.06,North,0,0.0,0.0,56,0.00,,,0.00,WUHU21623XXSP,2013-05-08 22:00:00,
2013-05-08 17:05:00,82.4,65.5,30.06,North,0,0.0,0.0,57,0.00,,,0.00,WUHU21623XXSP,2013-05-08 22:05:00,
2013-05-08 17:10:00,81.7,64.9,30.06,North,0,0.0,0.0,57,0.00,,,0.00,WUHU21623XXSP,2013-05-08 22:10:00,
2013-05-08 17:15:00,81.0,64.8,30.06,North,0,0.0,0.0,58,0.00,,,0.00,WUHU21623XXSP,2013-05-08 22:15:00,
2013-05-08 17:20:00,80.4,64.3,30.06,North,0,0.0,0.0,58,0.00,,,0.00,WUHU21623XXSP,2013-05-08 22:20:00,
2013-05-08 17:25:00,80.2,64.8,30.06,North,0,0.0,0.0,59,0.00,,,0.00,WUHU21623XXSP,2013-05-08 22:25:00,
2013-05-08 17:30:00,80.2,64.6,30.06,North,0,0.0,0.0,59,0.00,,,0.00,WUHU21623XXSP,2013-05-08 22:30:00,
2013-05-08 17:35:00,80.4,65.3,30.06,North,0,0.0,0.0,60,0.00,,,0.00,WUHU21623XXSP,2013-05-08 22:35:00,
2013-05-08 17:40:00,80.4,64.8,30.06,North,0,0.0,0.0,59,0.00,,,0.00,WUHU21623XXSP,2013-05-08 22:40:00,
2013-05-08 17:45:00,80.8,65.6,30.06,North,0,0.0,0.0,60,0.00,,,0.00,WUHU21623XXSP,2013-05-08 22:45:00,
2013-05-08 17:50:00,81.0,66.3,30.06,North,0,0.0,0.0,61,0.00,,,0.00,WUHU21623XXSP,2013-05-08 22:50:00,
2013-05-08 17:55:00,81.0,66.3,30.06,North,0,0.0,0.0,61,0.00,,,0.00,WUHU21623XXSP,2013-05-08 22:55:00,
2013-05-08 18:00:00,81.0,65.8,30.06,North,0,0.0,0.0,60,0.00,,,0.00,WUHU21623XXSP,2013-05-08 23:00:00,
2013-05-08 18:05:00,80.4,65.8,30.06,North,0,0.0,0.0,61,0.00,,,0.00,WUHU21623XXSP,2013-05-08 23:05:00,
2013-05-08 18:10:00,79.7,65.6,30.06,North,0,0.0,0.0,62,0.00,,,0.00,WUHU21623XXSP,2013-05-08 23:10:00,
2013-05-08 18:15:00,79.0,65.3,30.06,North,0,0.0,0.0,63,0.00,,,0.00,WUHU21623XXSP,2013-05-08 23:15:00,
2013-05-08 18:20:00,78.6,65.4,30.06,North,0,0.0,0.0,64,0.00,,,0.00,WUHU21623XXSP,2013-05-08 23:20:00,
2013-05-08 18:25:00,78.4,65.2,30.06,North,0,0.0,0.0,64,0.00,,,0.00,WUHU21623XXSP,2013-05-08 23:25:00,
2013-05-08 18:30:00,78.1,65.3,30.06,North,0,0.0,0.0,65,0.00,,,0.00,WUHU21623XXSP,2013-05-08 23:30:00,
2013-05-08 18:35:00,77.9,65.6,30.05,North,0,0.0,0.0,66,0.00,,,0.00,WUHU21623XXSP,2013-05-08 23:35:00,
2013-05-08 18:40:00,77.7,65.4,30.06,North,0,0.0,0.0,66,0.00,,,0.00,WUHU21623XXSP,2013-05-08 23:40:00,
2013-05-08 18:45:00,77.0,65.2,30.06,North,0,0.0,0.0,67,0.00,,,0.00,WUHU21623XXSP,2013-05-08 23:45:00,
2013-05-08 18:50:00,76.6,65.3,30.06,North,0,0.0,0.0,68,0.00,,,0.00,WUHU21623XXSP,2013-05-08 23:50:00,
2013-05-08 18:55:00,76.3,64.9,30.06,North,0,0.0,0.0,68,0.00,,,0.00,WUHU21623XXSP,2013-05-08 23:55:00,
2013-05-08 19:00:00,75.7,64.8,30.06,North,0,0.0,0.0,69,0.00,,,0.00,WUHU21623XXSP,2013-05-09 00:00:00,
2013-05-08 19:05:00,75.4,64.9,30.06,North,0,0.0,0.0,70,0.00,,,0.00,WUHU21623XXSP,2013-05-09 00:05:00,
2013-05-08 19:10:00,75.0,64.6,30.06,North,0,0.0,0.0,70,0.00,,,0.00,WUHU21623XXSP,2013-05-09 00:10:00,
2013-05-08 19:15:00,74.5,64.8,30.06,North,0,0.0,0.0,71,0.00,,,0.00,WUHU21623XXSP,2013-05-09 00:15:00,
2013-05-08 19:20:00,74.3,64.3,30.07,North,0,0.0,0.0,71,0.00,,,0.00,WUHU21623XXSP,2013-05-09 00:20:00,
2013-05-08 19:25:00,73.9,64.0,30.07,North,0,0.0,0.0,71,0.00,,,0.00,WUHU21623XXSP,2013-05-09 00:25:00,
2013-05-08 19:30:00,73.6,64.1,30.07,North,0,0.0,0.0,72,0.00,,,0.00,WUHU21623XXSP,2013-05-09 00:30:00,
2013-05-08 19:35:00,73.2,63.7,30.08,North,0,0.0,0.0,72,0.00,,,0.00,WUHU21623XXSP,2013-05-09 00:35:00,
2013-05-08 19:40:00,73.0,63.9,30.07,North,0,0.0,0.0,73,0.00,,,0.00,WUHU21623XXSP,2013-05-09 00:40:00,
2013-05-08 19:45:00,72.5,63.4,30.07,North,0,0.0,0.0,73,0.00,,,0.00,WUHU21623XXSP,2013-05-09 00:45:00,
2013-05-08 19:50:00,72.3,63.2,30.08,North,0,0.0,0.0,73,0.00,,,0.00,WUHU21623XXSP,2013-05-09 00:50:00,
2013-05-08 19:55:00,72.0,63.2,30.08,North,0,0.0,0.0,74,0.00,,,0.00,WUHU21623XXSP,2013-05-09 00:55:00,
2013-05-08 20:00:00,71.4,62.7,30.08,North,0,0.0,0.0,74,0.00,,,0.00,WUHU21623XXSP,2013-05-09 01:00:00,
2013-05-08 20:05:00,71.2,62.9,30.08,North,0,0.0,0.0,75,0.00,,,0.00,WUHU21623XXSP,2013-05-09 01:05:00,
2013-05-08 20:10:00,70.9,62.9,30.08,North,0,0.0,0.0,75,0.00,,,0.00,WUHU21623XXSP,2013-05-09 01:10:00,
2013-05-08 20:15:00,70.3,62.0,30.08,North,0,0.0,0.0,75,0.00,,,0.00,WUHU21623XXSP,2013-05-09 01:15:00,
2013-05-08 20:20:00,70.3,62.3,30.08,North,0,0.0,0.0,76,0.00,,,0.00,WUHU21623XXSP,2013-05-09 01:20:00,
2013-05-08 20:25:00,70.0,62.2,30.08,North,0,0.0,0.0,76,0.00,,,0.00,WUHU21623XXSP,2013-05-09 01:25:00,
2013-05-08 20:30:00,69.6,61.6,30.08,North,0,0.0,0.0,76,0.00,,,0.00,WUHU21623XXSP,2013-05-09 01:30:00,
2013-05-08 20:35:00,69.4,61.5,30.09,North,0,0.0,0.0,76,0.00,,,0.00,WUHU21623XXSP,2013-05-09 01:35:00,
2013-05-08 20:40:00,69.3,61.7,30.09,North,0,0.0,0.0,77,0.00,,,0.00,WUHU21623XXSP,2013-05-09 01:40:00,
2013-05-08 20:45:00,69.1,61.5,30.09,North,0,0.0,0.0,77,0.00,,,0.00,WUHU21623XXSP,2013-05-09 01:45:00,
2013-05-08 20:50:00,68.9,61.4,30.09,North,0,0.0,0.0,77,0.00,,,0.00,WUHU21623XXSP,2013-05-09 01:50:00,
2013-05-08 20:55:00,68.7,61.2,30.08,North,0,0.0,0.0,77,0.00,,,0.00,WUHU21623XXSP,2013-05-09 01:55:00,
2013-05-08 21:00:00,68.7,61.2,30.09,North,0,0.0,0.0,77,0.00,,,0.00,WUHU21623XXSP,2013-05-09 02:00:00,
2013-05-08 21:05:00,68.7,61.6,30.09,North,0,0.0,0.0,78,0.00,,,0.00,WUHU21623XXSP,2013-05-09 02:05:00,
2013-05-08 21:10:00,68.5,61.4,30.09,North,0,0.0,0.0,78,0.00,,,0.00,WUHU21623XXSP,2013-05-09 02:10:00,
2013-05-08 21:15:00,68.5,61.4,30.09,North,0,0.0,0.0,78,0.00,,,0.00,WUHU21623XXSP,2013-05-09 02:15:00,
2013-05-08 21:20:00,68.5,61.8,30.09,North,0,0.0,0.0,79,0.00,,,0.00,WUHU21623XXSP,2013-05-09 02:20:00,
2013-05-08 21:25:00,68.4,61.6,30.09,North,0,0.0,0.0,79,0.00,,,0.00,WUHU21623XXSP,2013-05-09 02:25:00,
2013-05-08 21:30:00,68.2,61.5,30.10,North,0,0.0,0.0,79,0.00,,,0.00,WUHU21623XXSP,2013-05-09 02:30:00,
2013-05-08 21:35:00,68.0,61.3,30.09,North,0,0.0,0.0,79,0.00,,,0.00,WUHU21623XXSP,2013-05-09 02:35:00,
2013-05-08 21:40:00,67.8,61.1,30.10,North,0,0.0,0.0,79,0.00,,,0.00,WUHU21623XXSP,2013-05-09 02:40:00,
2013-05-08 21:45:00,67.8,61.1,30.10,North,0,0.0,0.0,80,0.00,,,0.00,WUHU21623XXSP,2013-05-09 02:45:00,
2013-05-08 21:50:00,67.6,61.3,30.10,North,0,0.0,0.0,80,0.00,,,0.00,WUHU21623XXSP,2013-05-09 02:50:00,
2013-05-08 21:55:00,67.6,61.3,30.10,North,0,0.0,0.0,80,0.00,,,0.00,WUHU21623XXSP,2013-05-09 02:55:00,
2013-05-08 22:00:00,67.3,61.3,30.10,North,0,0.0,0.0,81,0.00,,,0.00,WUHU21623XXSP,2013-05-09 03:00:00,
2013-05-08 22:05:00,67.3,61.3,30.10,North,0,0.0,0.0,81,0.00,,,0.00,WUHU21623XXSP,2013-05-09 03:05:00,
2013-05-08 22:10:00,67.1,61.1,30.10,North,0,0.0,0.0,81,0.00,,,0.00,WUHU21623XXSP,2013-05-09 03:10:00,
2013-05-08 22:15:00,67.1,61.1,30.10,North,0,0.0,0.0,81,0.00,,,0.00,WUHU21623XXSP,2013-05-09 03:15:00,
2013-05-08 22:20:00,66.9,60.9,30.10,North,0,0.0,0.0,81,0.00,,,0.00,WUHU21623XXSP,2013-05-09 03:20:00,
2013-05-08 22:25:00,66.9,60.9,30.10,North,0,0.0,0.0,82,0.00,,,0.00,WUHU21623XXSP,2013-05-09 03:25:00,
2013-05-08 22:30:00,66.7,61.1,30.10,North,0,0.0,0.0,82,0.00,,,0.00,WUHU21623XXSP,2013-05-09 03:30:00,
2013-05-08 22:35:00,66.7,61.1,30.10,North,0,0.0,0.0,82,0.00,,,0.00,WUHU21623XXSP,2013-05-09 03:35:00,
2013-05-08 22:40:00,66.7,61.1,30.10,North,0,0.0,0.0,82,0.00,,,0.00,WUHU21623XXSP,2013-05-09 03:40:00,
2013-05-08 22:45:00,66.6,60.9,30.10,North,0,0.0,0.0,82,0.00,,,0.00,WUHU21623XXSP,2013-05-09 03:45:00,
2013-05-08 22:50:00,66.6,60.9,30.10,North,0,0.0,0.0,82,0.00,,,0.00,WUHU21623XXSP,2013-05-09 03:50:00,
2013-05-08 22:55:00,66.4,60.7,30.10,North,0,0.0,0.0,82,0.00,,,0.00,WUHU21623XXSP,2013-05-09 03:55:00,
2013-05-08 23:00:00,66.4,60.7,30.10,North,0,0.0,0.0,82,0.00,,,0.00,WUHU21623XXSP,2013-05-09 04:00:00,
2013-05-08 23:01:00,66.4,60.7,30.10,North,0,0.0,0.0,82,0.00,,,0.00,WUHU21623XXSP,2013-05-09 04:01:00,
2013-05-08 23:06:00,66.2,60.5,30.10,North,0,0.0,0.0,82,0.00,,,0.00,WUHU21623XXSP,2013-05-09 04:06:00,
2013-05-08 23:11:00,66.0,60.4,30.10,North,0,0.0,0.0,82,0.00,,,0.00,WUHU21623XXSP,2013-05-09 04:11:00,
2013-05-08 23:16:00,65.8,60.2,30.10,North,0,0.0,0.0,82,0.00,,,0.00,WUHU21623XXSP,2013-05-09 04:16:00,
2013-05-08 23:21:00,65.7,60.0,30.10,North,0,0.0,0.0,82,0.00,,,0.00,WUHU21623XXSP,2013-05-09 04:21:00,
2013-05-08 23:26:00,65.3,60.0,30.10,North,0,0.0,0.0,83,0.00,,,0.00,WUHU21623XXSP,2013-05-09 04:26:00,
2013-05-08 23:31:00,65.1,59.8,30.10,North,0,0.0,0.0,83,0.00,,,0.00,WUHU21623XXSP,2013-05-09 04:31:00,
2013-05-08 23:36:00,64.9,59.6,30.10,North,0,0.0,0.0,83,0.00,,,0.00,WUHU21623XXSP,2013-05-09 04:36:00,
2013-05-08 23:41:00,64.9,59.6,30.10,North,0,0.0,0.0,83,0.00,,,0.00,WUHU21623XXSP,2013-05-09 04:41:00,
2013-05-08 23:46:00,64.9,59.6,30.10,North,0,0.0,0.0,83,0.00,,,0.00,WUHU21623XXSP,2013-05-09 04:46:00,
2013-05-08 23:51:00,64.9,59.6,30.10,North,0,0.0,0.0,83,0.00,,,0.00,WUHU21623XXSP,2013-05-09 04:51:00,
2013-05-08 23:56:00,65.1,59.8,30.10,North,0,0.0,0.0,83,0.00,,,0.00,WUHU21623XXSP,2013-05-09 04:56:00,